Regional Weather Roundup
Issued by NWS

Home | Current Version | Previous Version | Graphics & Text | Print | Product List | Glossary On
Versions: 1 2 3 4 5 6 7 8 9 10 11 12 13 14 15 16 17 18 19 20 21 22 23 24 25 26 27 28 29 30 31 32 33 34 35 36 37 38 39 40 41 42 43 44 45 46 47 48 49 50
000
ASUS45 KABQ 192310
RWRNM
WEATHER ROUNDUP FOR NEW MEXICO
NATIONAL WEATHER SERVICE ALBUQUERQUE NM
500 PM MDT TUE AUG 19 2014

NOTE: "FAIR" MEANS FEW OR NO CLOUDS BELOW 12,000 FEET AGL WITH NO
       SIGNIFICANT WEATHER OR OBSTRUCTIONS TO VISION.

      THIS PRODUCT IS RELEASED AS TWO VERSIONS.  ONE VERSION NEAR
      THE TOP OF THE HOUR CONTAINING PRELIMINARY DATA FROM ALBUQUERQUE
      AND OTHER STATIONS.  A FINAL VERSION WITH ADDITIONAL DATA IS
      ISSUED ABOUT 10 MINUTES AFTER THE HOUR.

NMZ501-503-504-510>518-200000-
NORTHWEST PLATEAU/NORTHCENTRAL MOUNTAINS

CITY           SKY/WX    TMP DP  RH WIND       PRES   REMARKS
FARMINGTON     PTSUNNY   74  51  44 W20G25    29.97R
LOS ALAMOS     PTSUNNY   78  40  25 S8G18     30.09S
SANTA FE       MOSUNNY   85  37  18 S9        30.01F
TAOS           PTSUNNY   82  37  20 S13G18    30.07S
ANGEL FIRE     FAIR      67  46  45 S7        30.20F

$$
NMZ402-403-502-505>509-200000-
WESTCENTRAL MOUNTAINS/SOUTHWEST MOUNTAINS

CITY           SKY/WX    TMP DP  RH WIND       PRES   REMARKS
GALLUP         CLOUDY    72  53  51 SW15      30.08F
SILVER CITY    CLOUDY    75  55  50 MISG      30.05R

$$
NMZ407-409-411-412-200000-
SOUTHERN DESERTS

CITY           SKY/WX    TMP DP  RH WIND       PRES   REMARKS
LORDSBURG      CLOUDY    64  63  94 W6        30.02F
DEMING         CLOUDY    75  59  57 W21G37    29.98R
LAS CRUCES     CLOUDY    82  59  45 SW40G51   29.95R
HOLLOMAN AFB   MOSUNNY   93  50  22 SW9       29.85F
ALAMOGORDO     MOSUNNY   91  48  22 S6G17     29.87F
T OR C         PTSUNNY   86  49  27 VRB5      29.92F

$$
NMZ519>523-200000-
CENTRAL VALLEYS/CENTRAL HIGHLANDS

CITY           SKY/WX    TMP DP  RH WIND       PRES   REMARKS
ALBUQUERQUE    PTSUNNY   86  43  22 SW15      29.95F
DOUBLE EAGLE   PTSUNNY   82  45  26 S15       29.99F
MORIARTY ARPT  FAIR      85  40  20 S10G16    30.02S
CLINES CORNERS PTSUNNY   79  46  31 SE12      30.07F
BELEN          FAIR      86  42  21 SW6       29.94S
SOCORRO        FAIR      91  45  20 S15       29.91F

$$
NMZ524>526-539-540-200000-
SOUTHCENTRAL MOUNTAINS

CITY           SKY/WX    TMP DP  RH WIND       PRES   REMARKS
RUIDOSO        PTSUNNY   73  48  40 SW10      30.10F

$$
NMZ527>531-200000-
NORTHEAST HIGHLANDS/NORTHEAST PLAINS

CITY           SKY/WX    TMP DP  RH WIND       PRES   REMARKS
LAS VEGAS      PTSUNNY   82  42  24 S13G18    30.06F
RATON          CLOUDY    78  44  29 NW8G26    30.01S
CLAYTON        MOSUNNY   91  41  17 SE17      29.92F

$$
NMZ532>537-200000-
EASTCENTRAL PLAINS

CITY           SKY/WX    TMP DP  RH WIND       PRES   REMARKS
TUCUMCARI      MOSUNNY   96  43  16 SW8       29.83F
CANNON AFB     SUNNY     90  52  26 SE10      29.89F
CLOVIS AIRPORT   N/A     90  55  31 SE12G23   29.92F

$$
NMZ028-029-538-200000-
SOUTHEAST PLAINS

CITY           SKY/WX    TMP DP  RH WIND       PRES   REMARKS
ROSWELL        SUNNY     94  46  19 E7        29.83F
ARTESIA        SUNNY     93  52  24 S7G16     29.82F
CARLSBAD       PTSUNNY   97  50  20 S7        29.79F
HOBBS          PTSUNNY   91  52  25 SE12      29.87F


$$



USA.gov is the U.S. government's official web portal to all federal, state and local government web resources and services.